Hourly Data Report for October 19, 2016

All times are specified in Local Standard Time (LST). Add 1 hour to adjust for Daylight Saving Time where and when it is observed.

BAKER LAKE A
NUNAVUT

64°17'56.000" N
96°04'40.000" W
18.60 m
2300503
71926
YBK

Download Data

Hourly Data (October 2016)
Hourly Data Report for October 19, 2016
Temp Definition
°C
Dew Point Temp Definition
°C
Rel Hum Definition
%
Wind Dir Definition
10's deg

Wind Spd Definition
km/h
Visibility Definition
km
Stn Press Definition
kPa
Hmdx Definition


Wind Chill Definition


Weather Definition


TIME
00:00 Legend Double Dagger -2.9 -4.0 92 16 23 24.1 101.96   -9 Mostly Cloudy
01:00 Legend Double Dagger -3.1 -4.2 92 16 23 24.1 101.98   -10 LegendNANA
02:00 Legend Double Dagger -3.3 -4.3 93 17 26 24.1 101.96   -10 LegendNANA
03:00 Legend Double Dagger -3.3 -4.6 91 17 25 24.1 101.95   -10 Cloudy
04:00 Legend Double Dagger -3.3 -4.4 92 19 12 24.1 101.94   -8 LegendNANA
05:00 Legend Double Dagger -3.2 -4.3 92 18 22 24.1 101.89   -10 LegendNANA
06:00 Legend Double Dagger -3.0 -4.3 91 18 26 24.1 101.86   -10 Mostly Cloudy
07:00 Legend Double Dagger -2.9 -4.3 90 19 27 32.2 101.83   -10 LegendNANA
08:00 Legend Double Dagger -2.7 -4.1 90 18 23 40.2 101.81   -9 LegendNANA
09:00 Legend Double Dagger -2.3 -4.0 88 19 29 40.2 101.75   -9 Cloudy
10:00 Legend Double Dagger -1.6 -3.5 87 19 25 40.2 101.73   -8 LegendNANA
11:00 Legend Double Dagger -1.0 -3.2 85 19 28 40.2 101.65   -8 Snow
12:00 Legend Double Dagger -0.7 -3.7 80 22 33 24.1 101.62   -8 Snow
13:00 Legend Double Dagger -0.7 -3.7 80 23 30 40.2 101.61   -7 Snow
14:00 Legend Double Dagger -1.0 -3.5 83 23 34 8.1 101.58   -8 Snow
15:00 Legend Double Dagger -1.1 -3.2 86 23 29 24.1 101.53   -8 Snow
16:00 Legend Double Dagger -0.9 -2.8 87 23 28 16.1 101.52   -7 Snow
17:00 Legend Double Dagger -1.0 -2.4 90 23 28 16.1 101.51   -8 Snow
18:00 Legend Double Dagger -0.9 -2.0 92 23 21 24.1 101.52   -7 Snow
19:00 Legend Double Dagger -0.2 -1.5 91 25 24 24.1 101.50   -6 Snow
20:00 Legend Double Dagger -0.2 -1.3 92 24 14 24.1 101.50   -4 LegendNANA
21:00 Legend Double Dagger -0.1 -2.2 86 25 22 24.1 101.47   -6 Cloudy
22:00 Legend Double Dagger -0.7 -2.3 89 27 23 24.1 101.47   -7 Snow
23:00 Legend Double Dagger -1.2 -2.9 88 26 18 24.1 101.49   -6 Snow

Notes on Data Quality.

Legend

  • E = Estimated
  • M = Missing
  • NA = Not Available
  • ‡ = Partner data that is not subject to review by the National Climate Archives
Date modified: